Kremmling, CO

3:04 PM MST on December 14, 2017 (GMT -0700)
Kremmling

Weather History for K20V - May, 2013

Change the Weather History Date:

Monday, May 13, 2013

  Actual Average Record
Temperature  
Mean Temperature 55 °F -  
Max Temperature 73 °F - 81 °F (2017)
Min Temperature 37 °F - 17 °F (2014)
Degree Days  
Heating Degree Days 10    
Month to date heating degree days  
Cooling Degree Days 0    
Month to date cooling degree days  
Growing Degree Days 5 (Base 50)    
Moisture  
Dew Point 31 °F    
Average Humidity 48    
Maximum Humidity 87    
Minimum Humidity 16    
Precipitation  
Precipitation 0.00 in - 0.12 in (2007)
Sea Level Pressure  
Sea Level Pressure 30.36 in    
Wind  
Wind Speed 2 mph (WSW)    
Max Wind Speed 20 mph    
Max Gust Speed 29 mph    
Visibility 10 miles    
Events      
T = Trace of Precipitation, MM = Missing Value Source: NWS Daily Summary

Daily Weather History Graph

Daily Weather History Graph

Search for Another Location

Airport or City:

Trip Planner

Search our weather history database for the weather conditions in past years. The results will help you decide how hot, cold, wet, or windy it might be!

Date:

Astronomy

May. 13, 2013 Rise Set
Actual Time 5:51 AM MDT 8:12 PM MDT
Civil Twilight 5:21 AM MDT 8:43 PM MDT
Nautical Twilight 4:43 AM MDT 9:20 PM MDT
Astronomical Twilight 4:02 AM MDT 10:02 PM MDT
Moon 8:40 AM MDT (5/13) 11:23 PM MDT (5/13)
Length of Visible Light 15h 21m
Length of Day
14h 20m
Waxing Crescent, 12% of the Moon is Illuminated
May 13
Waxing Crescent
May 17
First Quarter
May 24
Full
May 31
Last Quarter
Jun 8
New

Hourly Weather History & Observations

Time (MDT) Temp. Windchill Dew Point Humidity Pressure Visibility Wind Dir Wind Speed Gust Speed Precip Events Conditions
12:15 AM 42.8 °F 40.1 °F 32.0 °F 66% 30.38 in 10.0 mi SE 4.6 mph - N/A   Mostly Cloudy
12:35 AM 42.8 °F - 32.0 °F 66% 30.38 in 10.0 mi Calm Calm - N/A   Mostly Cloudy
12:55 AM 42.8 °F - 32.0 °F 66% 30.38 in 10.0 mi Calm Calm - N/A   Scattered Clouds
1:15 AM 42.8 °F - 32.0 °F 66% 30.38 in 10.0 mi Calm Calm - N/A   Scattered Clouds
1:35 AM 41.0 °F - 32.0 °F 70% 30.38 in 10.0 mi Calm Calm - N/A   Clear
1:55 AM 41.0 °F - 32.0 °F 70% 30.38 in 10.0 mi Calm Calm - N/A   Clear
2:15 AM 41.0 °F - 32.0 °F 70% 30.38 in 10.0 mi Calm Calm - N/A   Scattered Clouds
2:35 AM 39.2 °F - 32.0 °F 75% 30.39 in 10.0 mi Calm Calm - N/A   Clear
2:55 AM 37.4 °F - 32.0 °F 81% 30.39 in 10.0 mi Calm Calm - N/A   Clear
3:15 AM 37.4 °F - 32.0 °F 81% 30.39 in 10.0 mi Calm Calm - N/A   Scattered Clouds
3:35 AM 37.4 °F - 32.0 °F 81% 30.40 in 10.0 mi Calm Calm - N/A   Mostly Cloudy
3:55 AM 37.4 °F - 33.8 °F 87% 30.40 in 10.0 mi Calm Calm - N/A   Mostly Cloudy
4:15 AM 37.4 °F - 32.0 °F 81% 30.40 in 10.0 mi Calm Calm - N/A   Scattered Clouds
4:35 AM 37.4 °F - 32.0 °F 81% 30.41 in 10.0 mi Calm Calm - N/A   Mostly Cloudy
4:54 AM 37.4 °F - 32.0 °F 81% 30.41 in 10.0 mi Calm Calm - N/A   Mostly Cloudy
5:15 AM 37.4 °F - 32.0 °F 81% 30.41 in 10.0 mi Calm Calm - N/A   Clear
5:35 AM 37.4 °F - 32.0 °F 81% 30.41 in 10.0 mi Calm Calm - N/A   Clear
5:56 AM 37.4 °F - 33.8 °F 87% 30.41 in 7.0 mi Calm Calm - N/A   Clear
6:15 AM 37.4 °F - 32.0 °F 81% 30.42 in 10.0 mi Calm Calm - N/A   Clear
6:35 AM 37.4 °F - 33.8 °F 87% 30.43 in 10.0 mi Calm Calm - N/A   Clear
6:55 AM 37.4 °F - 33.8 °F 87% 30.44 in 10.0 mi Calm Calm - N/A   Clear
7:15 AM 41.0 °F - 33.8 °F 76% 30.44 in 10.0 mi Calm Calm - N/A   Clear
7:34 AM 41.0 °F - 33.8 °F 76% 30.44 in 10.0 mi Calm Calm - N/A   Clear
7:55 AM 42.8 °F - 33.8 °F 70% 30.45 in 10.0 mi Calm Calm - N/A   Clear
8:15 AM 50.0 °F - 35.6 °F 58% 30.45 in 10.0 mi Calm Calm - N/A   Clear
8:35 AM 50.0 °F - 33.8 °F 54% 30.45 in 10.0 mi Calm Calm - N/A   Clear
8:55 AM 51.8 °F - 33.8 °F 50% 30.44 in 10.0 mi Calm Calm - N/A   Clear
9:15 AM 51.8 °F - 33.8 °F 50% 30.44 in 10.0 mi Calm Calm - N/A   Clear
9:35 AM 53.6 °F - 32.0 °F 44% 30.43 in 10.0 mi Calm Calm - N/A   Clear
9:55 AM 55.4 °F - 33.8 °F 44% 30.42 in 10.0 mi Calm Calm - N/A   Clear
10:16 AM 59.0 °F - 32.0 °F 36% 30.41 in 10.0 mi Calm Calm - N/A   Clear
10:35 AM 59.0 °F - 32.0 °F 36% 30.41 in 10.0 mi Calm Calm - N/A   Clear
10:55 AM 60.8 °F - 32.0 °F 34% 30.41 in 10.0 mi Calm Calm - N/A   Clear
11:15 AM 64.4 °F - 32.0 °F 30% 30.40 in 10.0 mi Calm Calm - N/A   Clear
11:35 AM 68.0 °F - 33.8 °F 28% 30.39 in 10.0 mi Calm Calm - N/A   Clear
11:55 AM 69.8 °F - 30.2 °F 23% 30.39 in 10.0 mi Calm Calm - N/A   Clear
12:15 PM 69.8 °F - 28.4 °F 21% 30.38 in 10.0 mi Calm Calm - N/A   Clear
12:34 PM 71.6 °F - 30.2 °F 22% 30.37 in 10.0 mi East 4.6 mph - N/A   Clear
12:55 PM 71.6 °F - 30.2 °F 22% 30.36 in 10.0 mi SSW 4.6 mph - N/A   Clear
1:15 PM 73.4 °F - 30.2 °F 20% 30.35 in 10.0 mi SW 3.5 mph - N/A   Clear
1:35 PM 73.4 °F - 30.2 °F 20% 30.34 in 10.0 mi NW 5.8 mph - N/A   Clear
2:34 PM 71.6 °F - 30.2 °F 22% 30.33 in 10.0 mi West 3.5 mph - N/A   Mostly Cloudy
2:56 PM 73.4 °F - 24.8 °F 16% 30.32 in 10.0 mi WSW 3.5 mph - N/A   Mostly Cloudy
3:15 PM 73.4 °F - 28.4 °F 19% 30.31 in 10.0 mi SSW 4.6 mph - N/A   Scattered Clouds
3:36 PM 73.4 °F - 28.4 °F 19% 30.31 in 10.0 mi WSW 8.1 mph - N/A   Clear
3:55 PM 73.4 °F - 26.6 °F 18% 30.30 in 10.0 mi WSW 5.8 mph - N/A   Clear
4:15 PM 73.4 °F - 28.4 °F 19% 30.29 in 10.0 mi West 10.4 mph 18.4 mph N/A   Clear
4:35 PM 73.4 °F - 26.6 °F 18% 30.29 in 10.0 mi WSW 9.2 mph - N/A   Clear
4:55 PM 73.4 °F - 26.6 °F 18% 30.29 in 10.0 mi WSW 10.4 mph - N/A   Scattered Clouds
5:35 PM 71.6 °F - 26.6 °F 19% 30.28 in 10.0 mi NW 3.5 mph - N/A   Clear
6:16 PM 69.8 °F - 26.6 °F 20% 30.26 in 10.0 mi West 19.6 mph 28.8 mph N/A   Clear
6:35 PM 69.8 °F - 26.6 °F 20% 30.26 in 10.0 mi West 10.4 mph 18.4 mph N/A   Clear
6:55 PM 69.8 °F - 26.6 °F 20% 30.26 in 10.0 mi WNW 10.4 mph 21.9 mph N/A   Scattered Clouds
7:14 PM 69.8 °F - 23.0 °F 17% 30.26 in 10.0 mi NW 8.1 mph - N/A   Clear
7:35 PM 69.8 °F - 23.0 °F 17% 30.26 in 10.0 mi West 3.5 mph - N/A   Clear
7:56 PM 62.6 °F - 30.2 °F 30% 30.26 in 10.0 mi West 6.9 mph - N/A   Clear
8:15 PM 62.6 °F - 32.0 °F 32% 30.27 in 10.0 mi Calm Calm - N/A   Scattered Clouds
8:35 PM 62.6 °F - 32.0 °F 32% 30.27 in 10.0 mi Calm Calm - N/A   Mostly Cloudy
8:54 PM 59.0 °F - 32.0 °F 36% 30.27 in 10.0 mi Calm Calm - N/A   Scattered Clouds
9:15 PM 59.0 °F - 30.2 °F 34% 30.27 in 10.0 mi Calm Calm - N/A   Clear
9:35 PM 55.4 °F - 33.8 °F 44% 30.28 in 10.0 mi East 4.6 mph - N/A   Clear
9:55 PM 53.6 °F - 33.8 °F 47% 30.29 in 10.0 mi Calm Calm - N/A   Clear
10:15 PM 53.6 °F - 33.8 °F 47% 30.29 in 10.0 mi SE 5.8 mph - N/A   Clear
10:35 PM 53.6 °F - 35.6 °F 51% 30.29 in 10.0 mi Calm Calm - N/A   Clear
10:55 PM 53.6 °F - 33.8 °F 47% 30.29 in 10.0 mi East 5.8 mph - N/A   Clear
11:15 PM 53.6 °F - 35.6 °F 51% 30.29 in 10.0 mi ESE 5.8 mph - N/A   Clear
11:34 PM 51.8 °F - 33.8 °F 50% 30.28 in 10.0 mi ESE 3.5 mph - N/A   Clear
11:55 PM 50.0 °F - 33.8 °F 54% 30.28 in 10.0 mi East 5.8 mph - N/A   Clear